Showing default

ICEYE-X74, 68500

Orbit data source: Space-Track

ICEYE-X74, 68500 is a payload satellite owned by ICEYE (US) in SSO that was launched on Mon, 30 Mar 2026 UTC via an FALCON 9 launch vehicle from the Air Force Western Test Range (AFWTR). Payload-class satellites include a variety of spacecraft equipped with specific instruments for various scientific and technological missions. These include communications satellites like Starlink; space stations such as the ISS; scientific satellites like the Hubble; Earth observation satellites from companies like Planet Labs, Umbra, and HawkEye 360; GPS; miniature CubeSats for education and research; and military/defense satellites.

Loading next visibility...
Identifier
68500, 2026-067CN
Orbit
SSO
Country
Flag of USUS
Related business
Manufacturer
ICEYE
Mission
Operational Commercial Radar Imaging
Bus & Motor
ICEYE, Unknown motor
Mass
120 kg wet, 120 kg dry
Launch date (UTC)
2026-03-30 (3 months ago)
Launch vehicle
FALCON 9
Launch site
Air Force Western Test Range (AFWTR)
Object type
Payload
Rocket body
Debris
Shape & HBR
Box + 1 Pan, 0.7 m
Radar Cross Section
0.776 m², Medium (>0.1 m² and < 1m²)

Expand to show TLE details & history
Last TLE update: 13 hours ago

TLE from 13 hours ago
0 ICEYE-X74
1 68500U 26067CN  26193.88571295  .00001446  00000-0  14897-3 0  9993
2 68500  97.7632 151.7381 0001021 354.0134   6.1072 14.91786892 15552
Epoch: 2026-07-12T21:15Z
TLE epoch observation values (Epoch: 2026-07-12T21:15:25.598Z)
Latitude
-0.00009°
Longitude
-97.8967°
Altitude
594.698 km
Speed
7.563 km/s
True Right ascension
10h 06m 57s
True Declination
0° 00' 00"
Sunlit
Object was in daylight at epoch
Visualization orbit readout
Latitude
Unknown
Longitude
Unknown
Altitude
Unknown
Speed
Unknown
Apparent Right ascension
Unknown
Apparent Declination
Unknown
Sunlit
N/A
Visualization observer readout
Local Sidereal Time
22:15:54
Azimuth
Unknown
Elevation
Unknown
Doppler factor
Unknown
Orbital elements
Apogee altitude
590.094 km
Perigee altitude
588.671 km
Semi-major axis
6,967.52 km
Eccentricity
0.0001
Inclination
97.7632°
RAAN
151.7381°
Arg. of periapsis
354.0134°
True anomaly
6.10844°
Mean anomaly
6.1072°
Eccentric anomaly
6.10782°
Mean motion
3.73186 °/min
Orbital period
96.47 mins
BSTAR
0.00014897
Loading maneuver chart data...
Computing Atmospheric mass density...
Loading historical data...
Loading historical data...
Loading historical data...
Loading historical data...
Loading historical data...
Loading historical data...
Loading historical data...

Documentation

Showing up to 5 results
|